,,,PA_Meas_PMT16A,,PR_Meas_QMR101_102,,RH_Meas_QMH101,,SR_Meas_QMS101,,TA_Meas_QMH101,,GenWind,,GenWind,
date,time,status,PA,status,PR,status,RH,status,SR,status,TA,status,DirAvg,status,SpdAvg,
2012-12-19, 00:00:04,VALID,1008.49,VALID,0,VALID,104,VALID,0.112112,VALID,24.0819,VALID,12,VALID,0,
2012-12-19, 00:01:04,VALID,1008.51,VALID,0,VALID,104,VALID,0,VALID,24.0624,VALID,12,VALID,0,
2012-12-19, 00:02:04,VALID,1008.48,VALID,0,VALID,104,VALID,0,VALID,24.0429,VALID,12,VALID,0,
2012-12-19, 00:03:04,VALID,1008.49,VALID,0,VALID,104,VALID,0.112112,VALID,24.0429,VALID,12,VALID,0,
2012-12-19, 00:04:04,VALID,1008.49,VALID,0,VALID,104,VALID,0,VALID,24.0235,VALID,12,VALID,0.04375,
2012-12-19, 00:05:04,VALID,1008.51,VALID,0,VALID,104,VALID,0.112112,VALID,24.1227,VALID,12,VALID,0,
2012-12-19, 00:06:04,VALID,1008.49,VALID,0,VALID,104,VALID,0.112112,VALID,24.0429,VALID,12,VALID,0,
2012-12-19, 00:07:04,VALID,1008.46,VALID,0,VALID,104,VALID,0.112112,VALID,24.0235,VALID,12,VALID,0.0808594,
2012-12-19, 00:08:04,VALID,1008.45,VALID,0,VALID,104,VALID,0.112112,VALID,24.0448,VALID,12,VALID,0.199219,
2012-12-19, 00:09:04,VALID,1008.47,VALID,0,VALID,104,VALID,0.112112,VALID,24.0235,VALID,12,VALID,0.0765625,
2012-12-19, 00:10:04,VALID,1008.45,VALID,0,VALID,104,VALID,0,VALID,24.0448,VALID,12,VALID,0,
2012-12-19, 00:11:04,VALID,1008.45,VALID,0,VALID,104,VALID,0.112112,VALID,24.004,VALID,12,VALID,0,
2012-12-19, 00:12:04,VALID,1008.43,VALID,0,VALID,104,VALID,0,VALID,23.9845,VALID,12,VALID,0,
2012-12-19, 00:13:04,VALID,1008.41,VALID,0,VALID,104,VALID,0.112112,VALID,23.965,VALID,12,VALID,0,
2012-12-19, 00:14:04,VALID,1008.42,VALID,0,VALID,104,VALID,0,VALID,23.9845,VALID,12,VALID,0,
2012-12-19, 00:15:04,VALID,1008.41,VALID,0,VALID,104,VALID,0,VALID,24.0058,VALID,12,VALID,0.0351563,
2012-12-19, 00:16:04,VALID,1008.39,VALID,0,VALID,104,VALID,0,VALID,24.0235,VALID,12,VALID,0.232422,
2012-12-19, 00:17:04,VALID,1008.39,VALID,0,VALID,104,VALID,0,VALID,24.0235,VALID,12,VALID,0.410156,
2012-12-19, 00:18:04,VALID,1008.42,VALID,0,VALID,104,VALID,0,VALID,23.9845,VALID,12,VALID,0.421484,
2012-12-19, 00:19:04,VALID,1008.41,VALID,0,VALID,104,VALID,0,VALID,23.9668,VALID,12,VALID,0.265234,
2012-12-19, 00:20:04,VALID,1008.42,VALID,0,VALID,104,VALID,0.112112,VALID,23.9473,VALID,12,VALID,0,
2012-12-19, 00:21:04,VALID,1008.41,VALID,0,VALID,104,VALID,0.112112,VALID,23.9084,VALID,12,VALID,0,
2012-12-19, 00:22:04,VALID,1008.39,VALID,0,VALID,104,VALID,0,VALID,23.9084,VALID,12,VALID,0,
2012-12-19, 00:23:04,VALID,1008.38,VALID,0,VALID,104,VALID,0.112112,VALID,23.9084,VALID,12,VALID,0,
2012-12-19, 00:24:04,VALID,1008.4,VALID,0,VALID,104,VALID,0,VALID,23.9084,VALID,12,VALID,0,
2012-12-19, 00:25:04,VALID,1008.41,VALID,0,VALID,104,VALID,0,VALID,23.8889,VALID,12,VALID,0,
2012-12-19, 00:26:04,VALID,1008.4,VALID,0,VALID,104,VALID,0,VALID,23.8871,VALID,12,VALID,0,
2012-12-19, 00:27:04,VALID,1008.42,VALID,0,VALID,104,VALID,0.112112,VALID,23.8871,VALID,12,VALID,0,
2012-12-19, 00:28:04,VALID,1008.43,VALID,0,VALID,104,VALID,0.112112,VALID,23.9084,VALID,12,VALID,0.232422,
2012-12-19, 00:29:04,VALID,1008.47,VALID,0,VALID,104,VALID,0,VALID,23.9084,VALID,12,VALID,0.271094,
2012-12-19, 00:30:04,VALID,1008.5,VALID,0,VALID,104,VALID,0,VALID,23.8481,VALID,12,VALID,0.223438,
2012-12-19, 00:31:04,VALID,1008.52,VALID,0,VALID,104,VALID,0,VALID,23.8694,VALID,12,VALID,0.401953,
2012-12-19, 00:32:04,VALID,1008.51,VALID,0,VALID,104,VALID,0,VALID,23.8499,VALID,12,VALID,0.170703,
2012-12-19, 00:33:04,VALID,1008.49,VALID,0,VALID,104,VALID,0.112112,VALID,23.8694,VALID,12,VALID,0.249219,
2012-12-19, 00:34:04,VALID,1008.5,VALID,0,VALID,104,VALID,0.112112,VALID,23.8889,VALID,12,VALID,0.185937,
2012-12-19, 00:35:04,VALID,1008.51,VALID,0,VALID,104,VALID,0.112112,VALID,23.8871,VALID,12,VALID,0.345703,
2012-12-19, 00:36:04,VALID,1008.49,VALID,0,VALID,104,VALID,0.112112,VALID,23.9278,VALID,12,VALID,0.00546875,
2012-12-19, 00:37:04,VALID,1008.46,VALID,0,VALID,104,VALID,0.112112,VALID,23.9065,VALID,12,VALID,0,
2012-12-19, 00:38:04,VALID,1008.45,VALID,0,VALID,104,VALID,0,VALID,23.9278,VALID,12,VALID,0,
2012-12-19, 00:39:04,VALID,1008.44,VALID,0,VALID,104,VALID,0,VALID,23.9084,VALID,12,VALID,0,
2012-12-19, 00:40:04,VALID,1008.4,VALID,0,VALID,104,VALID,0,VALID,23.9278,VALID,12,VALID,0,
2012-12-19, 00:41:04,VALID,1008.38,VALID,0,VALID,104,VALID,0.112112,VALID,23.9473,VALID,12,VALID,0.336719,
2012-12-19, 00:42:04,VALID,1008.35,VALID,0,VALID,104,VALID,0,VALID,23.9863,VALID,12,VALID,0.546484,
2012-12-19, 00:43:04,VALID,1008.34,VALID,0,VALID,104,VALID,0.112112,VALID,24.0058,VALID,12,VALID,0.596484,
2012-12-19, 00:44:04,VALID,1008.33,VALID,0,VALID,104,VALID,0.112112,VALID,23.9845,VALID,12,VALID,0.579687,
2012-12-19, 00:45:04,VALID,1008.3,VALID,0,VALID,104,VALID,0,VALID,24.0058,VALID,12,VALID,0.661328,
2012-12-19, 00:46:04,VALID,1008.32,VALID,0,VALID,104,VALID,0,VALID,23.9065,VALID,12,VALID,0.392969,
2012-12-19, 00:47:04,VALID,1008.28,VALID,0,VALID,104,VALID,0.112112,VALID,23.9278,VALID,12,VALID,0.223828,
2012-12-19, 00:48:04,VALID,1008.28,VALID,0,VALID,104,VALID,0.112112,VALID,23.8676,VALID,12,VALID,0.196875,
2012-12-19, 00:49:04,VALID,1008.26,VALID,0,VALID,104,VALID,0,VALID,23.8694,VALID,12,VALID,0.279687,
2012-12-19, 00:50:04,VALID,1008.21,VALID,0,VALID,104,VALID,0,VALID,23.8499,VALID,12,VALID,0.303516,
2012-12-19, 00:51:04,VALID,1008.24,VALID,0,VALID,104,VALID,0,VALID,23.7896,VALID,12,VALID,0.299609,
2012-12-19, 00:52:04,VALID,1008.19,VALID,0,VALID,104,VALID,0,VALID,23.772,VALID,12,VALID,0.280078,
2012-12-19, 00:53:04,VALID,1008.18,VALID,0,VALID,104,VALID,0,VALID,23.7312,VALID,12,VALID,0.130859,
2012-12-19, 00:54:04,VALID,1008.14,VALID,0,VALID,104,VALID,0.112112,VALID,23.733,VALID,12,VALID,0,
2012-12-19, 00:55:04,VALID,1008.08,VALID,0,VALID,104,VALID,0.112112,VALID,23.6922,VALID,12,VALID,0,
2012-12-19, 00:56:04,VALID,1008.03,VALID,0,VALID,104,VALID,0.112112,VALID,23.694,VALID,12,VALID,0,
2012-12-19, 00:57:04,VALID,1008.03,VALID,0,VALID,104,VALID,0.112112,VALID,23.6532,VALID,12,VALID,0,
2012-12-19, 00:58:04,VALID,1008,VALID,0,VALID,104,VALID,0.112112,VALID,23.6532,VALID,12,VALID,0,
2012-12-19, 00:59:04,VALID,1008.02,VALID,0,VALID,104,VALID,0,VALID,23.6356,VALID,12,VALID,0,
2012-12-19, 01:00:05,VALID,1007.99,VALID,0,VALID,104,VALID,0,VALID,23.655,VALID,12,VALID,0.178125,
2012-12-19, 01:01:05,VALID,1007.98,VALID,0,VALID,104,VALID,0,VALID,23.6745,VALID,12,VALID,0.287109,
2012-12-19, 01:02:05,VALID,1007.97,VALID,0,VALID,104,VALID,0,VALID,23.655,VALID,12,VALID,0.0242187,
2012-12-19, 01:03:05,VALID,1007.95,VALID,0,VALID,104,VALID,0,VALID,23.6356,VALID,12,VALID,0.0046875,
2012-12-19, 01:04:05,VALID,1007.97,VALID,0,VALID,104,VALID,0,VALID,23.5966,VALID,12,VALID,0.0445312,
2012-12-19, 01:05:05,VALID,1007.94,VALID,0,VALID,104,VALID,0,VALID,23.6161,VALID,12,VALID,0,
2012-12-19, 01:06:05,VALID,1007.95,VALID,0,VALID,104,VALID,0,VALID,23.5753,VALID,12,VALID,0.138672,
2012-12-19, 01:07:05,VALID,1007.96,VALID,0,VALID,104,VALID,0,VALID,23.5771,VALID,12,VALID,0.575,
2012-12-19, 01:08:05,VALID,1007.94,VALID,0,VALID,104,VALID,0.112112,VALID,23.5771,VALID,12,VALID,0.354297,
2012-12-19, 01:09:05,VALID,1007.95,VALID,0,VALID,104,VALID,0,VALID,23.5576,VALID,12,VALID,0.520703,
2012-12-19, 01:10:05,VALID,1007.96,VALID,0,VALID,104,VALID,0,VALID,23.5576,VALID,12,VALID,0.606641,
2012-12-19, 01:11:05,VALID,1007.93,VALID,0,VALID,104,VALID,0,VALID,23.5186,VALID,12,VALID,0.20625,
2012-12-19, 01:12:05,VALID,1007.92,VALID,0,VALID,104,VALID,0,VALID,23.4974,VALID,12,VALID,0.424219,
2012-12-19, 01:13:05,VALID,1007.88,VALID,0,VALID,104,VALID,0,VALID,23.4992,VALID,12,VALID,0.218359,
2012-12-19, 01:14:05,VALID,1007.88,VALID,0,VALID,104,VALID,0,VALID,23.4992,VALID,12,VALID,0.106641,
2012-12-19, 01:15:05,VALID,1007.86,VALID,0,VALID,104,VALID,0,VALID,23.4797,VALID,12,VALID,0.377734,
2012-12-19, 01:16:05,VALID,1007.82,VALID,0,VALID,104,VALID,0,VALID,23.4602,VALID,10,VALID,0.544141,
2012-12-19, 01:17:05,VALID,1007.8,VALID,0,VALID,104,VALID,0,VALID,23.4602,VALID,10,VALID,0.246094,
2012-12-19, 01:18:05,VALID,1007.8,VALID,0,VALID,104,VALID,0,VALID,23.4389,VALID,10,VALID,0.520703,
2012-12-19, 01:19:05,VALID,1007.79,VALID,0,VALID,104,VALID,0,VALID,23.4212,VALID,10,VALID,0.591797,
2012-12-19, 01:20:05,VALID,1007.77,VALID,0,VALID,104,VALID,0,VALID,23.4212,VALID,10,VALID,0.558984,
2012-12-19, 01:21:05,VALID,1007.79,VALID,0,VALID,104,VALID,0,VALID,23.4212,VALID,10,VALID,0.342969,
2012-12-19, 01:22:05,VALID,1007.76,VALID,0,VALID,104,VALID,0,VALID,23.4212,VALID,9,VALID,0.217969,
2012-12-19, 01:23:05,VALID,1007.73,VALID,0,VALID,104,VALID,0,VALID,23.3805,VALID,10,VALID,0.0667969,
2012-12-19, 01:24:05,VALID,1007.75,VALID,0,VALID,104,VALID,0,VALID,23.423,VALID,9,VALID,0.314844,
2012-12-19, 01:25:05,VALID,1007.73,VALID,0,VALID,104,VALID,0,VALID,23.3823,VALID,9,VALID,0.378516,
2012-12-19, 01:26:05,VALID,1007.7,VALID,0,VALID,104,VALID,0,VALID,23.384,VALID,10,VALID,0.229297,
2012-12-19, 01:27:05,VALID,1007.7,VALID,0,VALID,104,VALID,0,VALID,23.3628,VALID,10,VALID,0.0414063,
2012-12-19, 01:28:05,VALID,1007.69,VALID,0,VALID,104,VALID,0,VALID,23.3628,VALID,9,VALID,0.529297,
2012-12-19, 01:29:05,VALID,1007.67,VALID,0,VALID,104,VALID,0,VALID,23.3433,VALID,50,VALID,0.417578,
2012-12-19, 01:30:05,VALID,1007.68,VALID,0,VALID,104,VALID,0,VALID,23.3628,VALID,50,VALID,0.310547,
2012-12-19, 01:31:05,VALID,1007.68,VALID,0,VALID,104,VALID,0,VALID,23.3823,VALID,50,VALID,0.287891,
2012-12-19, 01:32:05,VALID,1007.66,VALID,0,VALID,104,VALID,0,VALID,23.3628,VALID,50,VALID,0.260547,
2012-12-19, 01:33:05,VALID,1007.67,VALID,0,VALID,104,VALID,0,VALID,23.3415,VALID,50,VALID,0.15625,
2012-12-19, 01:34:05,VALID,1007.66,VALID,0,VALID,104,VALID,0,VALID,23.3433,VALID,50,VALID,0.205078,
2012-12-19, 01:35:05,VALID,1007.67,VALID,0,VALID,104,VALID,0,VALID,23.3238,VALID,50,VALID,0,
2012-12-19, 01:36:05,VALID,1007.65,VALID,0,VALID,104,VALID,0,VALID,23.3433,VALID,50,VALID,0.497656,
2012-12-19, 01:37:05,VALID,1007.64,VALID,0,VALID,104,VALID,0,VALID,23.3026,VALID,50,VALID,0.378906,
2012-12-19, 01:38:05,VALID,1007.6,VALID,0,VALID,104,VALID,0,VALID,23.3238,VALID,50,VALID,0.778906,
2012-12-19, 01:39:05,VALID,1007.57,VALID,0,VALID,104,VALID,0,VALID,23.3238,VALID,50,VALID,0.293359,
2012-12-19, 01:40:05,VALID,1007.54,VALID,0,VALID,104,VALID,0,VALID,23.3433,VALID,50,VALID,0.191406,
2012-12-19, 01:41:05,VALID,1007.53,VALID,0,VALID,104,VALID,0,VALID,23.3238,VALID,50,VALID,0,
2012-12-19, 01:42:05,VALID,1007.51,VALID,0,VALID,104,VALID,0,VALID,23.3043,VALID,50,VALID,0,
2012-12-19, 01:43:05,VALID,1007.51,VALID,0,VALID,104,VALID,0,VALID,23.2831,VALID,50,VALID,0.0972656,
2012-12-19, 01:44:05,VALID,1007.49,VALID,0,VALID,104,VALID,0,VALID,23.2848,VALID,50,VALID,0.136719,
2012-12-19, 01:45:05,VALID,1007.48,VALID,0,VALID,104,VALID,0,VALID,23.2848,VALID,50,VALID,0.275391,
2012-12-19, 01:46:05,VALID,1007.47,VALID,0,VALID,104,VALID,0,VALID,23.2848,VALID,50,VALID,0.102734,
2012-12-19, 01:47:05,VALID,1007.47,VALID,0,VALID,104,VALID,0,VALID,23.3061,VALID,50,VALID,0,
2012-12-19, 01:48:05,VALID,1007.45,VALID,0,VALID,104,VALID,0,VALID,23.2848,VALID,50,VALID,0.105469,
2012-12-19, 01:49:05,VALID,1007.44,VALID,0,VALID,104,VALID,0,VALID,23.2636,VALID,50,VALID,0.00195313,
2012-12-19, 01:50:05,VALID,1007.42,VALID,0,VALID,104,VALID,0,VALID,23.2654,VALID,50,VALID,0.210938,
2012-12-19, 01:51:05,VALID,1007.38,VALID,0,VALID,104,VALID,0,VALID,23.2848,VALID,50,VALID,0,
2012-12-19, 01:52:05,VALID,1007.36,VALID,0,VALID,104,VALID,0,VALID,23.2848,VALID,50,VALID,0,
2012-12-19, 01:53:05,VALID,1007.37,VALID,0,VALID,104,VALID,0,VALID,23.2848,VALID,50,VALID,0,
2012-12-19, 01:54:05,VALID,1007.35,VALID,0,VALID,104,VALID,0,VALID,23.2848,VALID,50,VALID,0,
2012-12-19, 01:55:05,VALID,1007.36,VALID,0,VALID,104,VALID,0,VALID,23.3043,VALID,50,VALID,0,
2012-12-19, 01:56:05,VALID,1007.36,VALID,0,VALID,104,VALID,0,VALID,23.2866,VALID,50,VALID,0.0101562,
2012-12-19, 01:57:05,VALID,1007.39,VALID,0,VALID,104,VALID,0,VALID,23.2848,VALID,51,VALID,0.160938,
2012-12-19, 01:58:05,VALID,1007.4,VALID,0,VALID,104,VALID,0,VALID,23.2654,VALID,50,VALID,0.222656,
2012-12-19, 01:59:05,VALID,1007.4,VALID,0,VALID,104,VALID,0,VALID,23.2459,VALID,50,VALID,0.258594,
2012-12-19, 02:00:05,VALID,1007.43,VALID,0,VALID,104,VALID,0,VALID,23.2476,VALID,50,VALID,0.273047,
2012-12-19, 02:01:05,VALID,1007.43,VALID,0,VALID,104,VALID,0,VALID,23.2069,VALID,50,VALID,0.242188,
2012-12-19, 02:02:05,VALID,1007.44,VALID,0,VALID,104,VALID,0,VALID,23.2051,VALID,50,VALID,0.177734,
2012-12-19, 02:03:05,VALID,1007.43,VALID,0,VALID,104,VALID,0,VALID,23.2264,VALID,50,VALID,0.187891,
2012-12-19, 02:04:05,VALID,1007.48,VALID,0,VALID,104,VALID,0,VALID,23.2459,VALID,50,VALID,0.233594,
2012-12-19, 02:05:05,VALID,1007.49,VALID,0,VALID,104,VALID,0,VALID,23.2654,VALID,50,VALID,0.215234,
2012-12-19, 02:06:05,VALID,1007.54,VALID,0,VALID,104,VALID,0,VALID,23.2848,VALID,51,VALID,0.142578,
2012-12-19, 02:07:05,VALID,1007.58,VALID,0,VALID,104,VALID,0,VALID,23.3043,VALID,50,VALID,0.208984,
2012-12-19, 02:08:05,VALID,1007.58,VALID,0,VALID,104,VALID,0,VALID,23.2848,VALID,50,VALID,0.173047,
2012-12-19, 02:09:05,VALID,1007.6,VALID,0,VALID,104,VALID,0,VALID,23.2848,VALID,50,VALID,0.320703,
2012-12-19, 02:10:05,VALID,1007.61,VALID,0,VALID,104,VALID,0,VALID,23.2654,VALID,50,VALID,0.239063,
2012-12-19, 02:11:05,VALID,1007.61,VALID,0,VALID,104,VALID,0,VALID,23.2654,VALID,51,VALID,0.327344,
2012-12-19, 02:12:05,VALID,1007.61,VALID,0,VALID,104,VALID,0,VALID,23.2459,VALID,50,VALID,0.426953,
2012-12-19, 02:13:05,VALID,1007.61,VALID,0,VALID,104,VALID,0,VALID,23.1874,VALID,50,VALID,0.276172,
2012-12-19, 02:14:05,VALID,1007.62,VALID,0,VALID,104,VALID,0,VALID,23.2069,VALID,50,VALID,0.152734,
2012-12-19, 02:15:05,VALID,1007.61,VALID,0,VALID,104,VALID,0,VALID,23.1679,VALID,50,VALID,0,
2012-12-19, 02:16:05,VALID,1007.61,VALID,0,VALID,104,VALID,0.112112,VALID,23.1679,VALID,50,VALID,0,
2012-12-19, 02:17:05,VALID,1007.62,VALID,0,VALID,104,VALID,0,VALID,23.1679,VALID,50,VALID,0,
2012-12-19, 02:18:05,VALID,1007.62,VALID,0,VALID,104,VALID,0,VALID,23.1272,VALID,50,VALID,0,
2012-12-19, 02:19:05,VALID,1007.62,VALID,0,VALID,104,VALID,0,VALID,23.1272,VALID,50,VALID,0,
2012-12-19, 02:20:05,VALID,1007.64,VALID,0,VALID,104,VALID,0,VALID,23.1679,VALID,50,VALID,0,
2012-12-19, 02:21:05,VALID,1007.62,VALID,0,VALID,104,VALID,0,VALID,23.1485,VALID,50,VALID,0,
2012-12-19, 02:22:05,VALID,1007.65,VALID,0,VALID,104,VALID,0.112112,VALID,23.1485,VALID,50,VALID,0,
2012-12-19, 02:23:05,VALID,1007.64,VALID,0,VALID,104,VALID,0,VALID,23.1272,VALID,51,VALID,0,
2012-12-19, 02:24:05,VALID,1007.66,VALID,0,VALID,104,VALID,0,VALID,23.1485,VALID,50,VALID,0,
2012-12-19, 02:25:05,VALID,1007.61,VALID,0,VALID,104,VALID,0,VALID,23.1485,VALID,50,VALID,0,
2012-12-19, 02:26:05,VALID,1007.6,VALID,0,VALID,104,VALID,0,VALID,23.1679,VALID,50,VALID,0,
2012-12-19, 02:27:05,VALID,1007.62,VALID,0,VALID,104,VALID,0,VALID,23.1679,VALID,50,VALID,0,
2012-12-19, 02:28:05,VALID,1007.57,VALID,0,VALID,104,VALID,0,VALID,23.1857,VALID,50,VALID,0.200781,
2012-12-19, 02:29:05,VALID,1007.59,VALID,0,VALID,104,VALID,0.112112,VALID,23.2264,VALID,50,VALID,0.208594,
2012-12-19, 02:30:05,VALID,1007.59,VALID,0,VALID,104,VALID,0,VALID,23.2264,VALID,50,VALID,0.141797,
2012-12-19, 02:31:05,VALID,1007.63,VALID,0,VALID,104,VALID,0,VALID,23.2459,VALID,50,VALID,0.321484,
2012-12-19, 02:32:05,VALID,1007.64,VALID,0,VALID,104,VALID,0,VALID,23.2459,VALID,50,VALID,0.169141,
2012-12-19, 02:33:05,VALID,1007.66,VALID,0,VALID,104,VALID,0,VALID,23.2459,VALID,50,VALID,0.155469,
2012-12-19, 02:34:05,VALID,1007.69,VALID,0,VALID,104,VALID,0,VALID,23.2264,VALID,50,VALID,0.288281,
2012-12-19, 02:35:05,VALID,1007.71,VALID,0,VALID,104,VALID,0,VALID,23.2069,VALID,50,VALID,0.177734,
2012-12-19, 02:36:05,VALID,1007.72,VALID,0,VALID,104,VALID,0,VALID,23.1679,VALID,50,VALID,0.234375,
2012-12-19, 02:37:05,VALID,1007.72,VALID,0,VALID,104,VALID,0,VALID,23.1662,VALID,50,VALID,0.0898438,
2012-12-19, 02:38:05,VALID,1007.74,VALID,0,VALID,104,VALID,0.112112,VALID,23.1272,VALID,50,VALID,0,
2012-12-19, 02:39:05,VALID,1007.73,VALID,0,VALID,104,VALID,0,VALID,23.129,VALID,50,VALID,0,
2012-12-19, 02:40:05,VALID,1007.72,VALID,0,VALID,104,VALID,0,VALID,23.129,VALID,50,VALID,0,
2012-12-19, 02:41:05,VALID,1007.7,VALID,0,VALID,104,VALID,0,VALID,23.0883,VALID,50,VALID,0,
2012-12-19, 02:42:05,VALID,1007.68,VALID,0,VALID,104,VALID,0,VALID,23.129,VALID,50,VALID,0,
2012-12-19, 02:43:05,VALID,1007.64,VALID,0,VALID,104,VALID,0,VALID,23.129,VALID,50,VALID,0,
2012-12-19, 02:44:05,VALID,1007.64,VALID,0,VALID,104,VALID,0,VALID,23.129,VALID,50,VALID,0,
2012-12-19, 02:45:05,VALID,1007.61,VALID,0,VALID,104,VALID,0,VALID,23.1485,VALID,50,VALID,0.116406,
2012-12-19, 02:46:05,VALID,1007.62,VALID,0,VALID,104,VALID,0,VALID,23.1485,VALID,50,VALID,0.336719,
2012-12-19, 02:47:05,VALID,1007.6,VALID,0,VALID,104,VALID,0,VALID,23.1485,VALID,50,VALID,0.518359,
2012-12-19, 02:48:05,VALID,1007.58,VALID,0,VALID,104,VALID,0,VALID,23.1485,VALID,50,VALID,0.277344,
2012-12-19, 02:49:05,VALID,1007.58,VALID,0,VALID,104,VALID,0,VALID,23.1272,VALID,50,VALID,0,
2012-12-19, 02:50:05,VALID,1007.59,VALID,0,VALID,104,VALID,0,VALID,23.1485,VALID,50,VALID,0.188672,
2012-12-19, 02:51:05,VALID,1007.57,VALID,0,VALID,104,VALID,0,VALID,23.129,VALID,50,VALID,0,
2012-12-19, 02:52:05,VALID,1007.56,VALID,0,VALID,104,VALID,0,VALID,23.129,VALID,50,VALID,0,
2012-12-19, 02:53:05,VALID,1007.57,VALID,0,VALID,104,VALID,0,VALID,23.1095,VALID,50,VALID,0,
2012-12-19, 02:54:05,VALID,1007.53,VALID,0,VALID,104,VALID,0,VALID,23.1095,VALID,50,VALID,0,
2012-12-19, 02:55:05,VALID,1007.56,VALID,0,VALID,104,VALID,0,VALID,23.129,VALID,50,VALID,0,
2012-12-19, 02:56:05,VALID,1007.55,VALID,0,VALID,104,VALID,0,VALID,23.1095,VALID,50,VALID,0,
2012-12-19, 02:57:05,VALID,1007.58,VALID,0,VALID,104,VALID,0,VALID,23.0883,VALID,50,VALID,0.290625,
2012-12-19, 02:58:05,VALID,1007.59,VALID,0,VALID,104,VALID,0,VALID,23.0883,VALID,50,VALID,0.252734,
2012-12-19, 02:59:05,VALID,1007.63,VALID,0,VALID,104,VALID,0,VALID,23.0705,VALID,50,VALID,0.232422,
2012-12-19, 03:00:05,VALID,1007.68,VALID,0,VALID,104,VALID,0,VALID,23.09,VALID,50,VALID,0.327344,
2012-12-19, 03:01:05,VALID,1007.68,VALID,0,VALID,104,VALID,0,VALID,23.09,VALID,50,VALID,0,
2012-12-19, 03:02:05,VALID,1007.7,VALID,0,VALID,104,VALID,0,VALID,23.0705,VALID,50,VALID,0,
2012-12-19, 03:03:05,VALID,1007.71,VALID,0,VALID,104,VALID,0,VALID,23.0705,VALID,50,VALID,0.0265625,
2012-12-19, 03:04:05,VALID,1007.69,VALID,0,VALID,104,VALID,0,VALID,23.0705,VALID,50,VALID,0.198828,
2012-12-19, 03:05:05,VALID,1007.71,VALID,0,VALID,104,VALID,0,VALID,23.0511,VALID,50,VALID,0.158594,
2012-12-19, 03:06:05,VALID,1007.71,VALID,0,VALID,104,VALID,0,VALID,23.0511,VALID,50,VALID,0.158203,
2012-12-19, 03:07:05,VALID,1007.68,VALID,0,VALID,104,VALID,0,VALID,23.0705,VALID,50,VALID,0.122656,
2012-12-19, 03:08:05,VALID,1007.69,VALID,0,VALID,104,VALID,0.112112,VALID,23.0511,VALID,50,VALID,0,
2012-12-19, 03:09:05,VALID,1007.68,VALID,0,VALID,104,VALID,0.112112,VALID,23.09,VALID,50,VALID,0,
2012-12-19, 03:10:05,VALID,1007.69,VALID,0,VALID,104,VALID,0,VALID,23.0705,VALID,50,VALID,0,
2012-12-19, 03:11:05,VALID,1007.69,VALID,0,VALID,104,VALID,0,VALID,23.0705,VALID,50,VALID,0,
2012-12-19, 03:12:05,VALID,1007.71,VALID,0,VALID,104,VALID,0,VALID,23.0688,VALID,50,VALID,0.151172,
2012-12-19, 03:13:05,VALID,1007.76,VALID,0,VALID,104,VALID,0,VALID,23.09,VALID,50,VALID,0.133203,
2012-12-19, 03:14:05,VALID,1007.77,VALID,0,VALID,104,VALID,0.112112,VALID,23.0705,VALID,50,VALID,0.137109,
2012-12-19, 03:15:05,VALID,1007.79,VALID,0,VALID,104,VALID,0,VALID,23.0511,VALID,50,VALID,0.146875,
2012-12-19, 03:16:05,VALID,1007.8,VALID,0,VALID,104,VALID,0,VALID,23.0316,VALID,50,VALID,0,
2012-12-19, 03:17:05,VALID,1007.79,VALID,0,VALID,104,VALID,0,VALID,23.0121,VALID,50,VALID,0,
2012-12-19, 03:18:05,VALID,1007.79,VALID,0,VALID,104,VALID,0,VALID,22.9926,VALID,50,VALID,0,
2012-12-19, 03:19:05,VALID,1007.79,VALID,0,VALID,104,VALID,0,VALID,23.0138,VALID,50,VALID,0,
2012-12-19, 03:20:05,VALID,1007.8,VALID,0,VALID,104,VALID,0,VALID,22.9536,VALID,50,VALID,0,
2012-12-19, 03:21:05,VALID,1007.82,VALID,0,VALID,104,VALID,0,VALID,22.9342,VALID,50,VALID,0,
2012-12-19, 03:22:05,VALID,1007.79,VALID,0,VALID,104,VALID,0,VALID,22.9536,VALID,50,VALID,0,
2012-12-19, 03:23:05,VALID,1007.78,VALID,0,VALID,104,VALID,0,VALID,22.9926,VALID,50,VALID,0,
2012-12-19, 03:24:05,VALID,1007.74,VALID,0,VALID,104,VALID,0,VALID,23.0138,VALID,50,VALID,0,
2012-12-19, 03:25:05,VALID,1007.76,VALID,0,VALID,104,VALID,0,VALID,23.0121,VALID,50,VALID,0,
2012-12-19, 03:26:05,VALID,1007.73,VALID,0,VALID,104,VALID,0,VALID,23.0316,VALID,50,VALID,0,
2012-12-19, 03:27:05,VALID,1007.72,VALID,0,VALID,104,VALID,0,VALID,23.0316,VALID,50,VALID,0,
2012-12-19, 03:28:05,VALID,1007.73,VALID,0,VALID,104,VALID,0,VALID,23.0121,VALID,50,VALID,0,
2012-12-19, 03:29:05,VALID,1007.74,VALID,0,VALID,104,VALID,0,VALID,23.0511,VALID,50,VALID,0,
2012-12-19, 03:30:05,VALID,1007.76,VALID,0,VALID,104,VALID,0,VALID,23.0316,VALID,50,VALID,0.151172,
2012-12-19, 03:31:05,VALID,1007.8,VALID,0,VALID,104,VALID,0,VALID,23.0316,VALID,50,VALID,0.310937,
2012-12-19, 03:32:05,VALID,1007.79,VALID,0,VALID,104,VALID,0,VALID,23.0316,VALID,50,VALID,0.252344,
2012-12-19, 03:33:05,VALID,1007.8,VALID,0,VALID,104,VALID,0,VALID,23.0528,VALID,50,VALID,0.314844,
2012-12-19, 03:34:05,VALID,1007.8,VALID,0,VALID,104,VALID,0,VALID,22.9926,VALID,50,VALID,0.291016,
2012-12-19, 03:35:05,VALID,1007.78,VALID,0,VALID,104,VALID,0,VALID,22.9536,VALID,50,VALID,0.208984,
2012-12-19, 03:36:05,VALID,1007.79,VALID,0,VALID,104,VALID,0,VALID,22.9536,VALID,50,VALID,0.275781,
2012-12-19, 03:37:05,VALID,1007.78,VALID,0,VALID,104,VALID,0,VALID,22.9342,VALID,50,VALID,0.0855469,
2012-12-19, 03:38:05,VALID,1007.78,VALID,0,VALID,104,VALID,0,VALID,22.9147,VALID,50,VALID,0.0425781,
2012-12-19, 03:39:05,VALID,1007.81,VALID,0,VALID,104,VALID,0,VALID,22.9147,VALID,50,VALID,0.121484,
2012-12-19, 03:40:05,VALID,1007.82,VALID,0,VALID,104,VALID,0,VALID,22.9342,VALID,50,VALID,0.220703,
2012-12-19, 03:41:05,VALID,1007.83,VALID,0,VALID,104,VALID,0,VALID,22.9342,VALID,50,VALID,0.294141,
2012-12-19, 03:42:05,VALID,1007.85,VALID,0,VALID,104,VALID,0,VALID,22.9536,VALID,50,VALID,0.139844,
2012-12-19, 03:43:04,VALID,1007.85,VALID,0,VALID,104,VALID,0,VALID,22.9731,VALID,50,VALID,0.0117188,
2012-12-19, 03:44:04,VALID,1007.84,VALID,0,VALID,104,VALID,0,VALID,22.9536,VALID,50,VALID,0.0210938,
2012-12-19, 03:45:04,VALID,1007.87,VALID,0,VALID,104,VALID,0,VALID,22.9731,VALID,50,VALID,0,
2012-12-19, 03:46:04,VALID,1007.88,VALID,0,VALID,104,VALID,0,VALID,22.9536,VALID,50,VALID,0,
2012-12-19, 03:47:04,VALID,1007.89,VALID,0,VALID,104,VALID,0,VALID,22.9536,VALID,50,VALID,0,
2012-12-19, 03:48:04,VALID,1007.91,VALID,0,VALID,104,VALID,0,VALID,22.9731,VALID,50,VALID,0,
2012-12-19, 03:49:04,VALID,1007.92,VALID,0,VALID,104,VALID,0,VALID,23.0316,VALID,50,VALID,0.310547,
2012-12-19, 03:50:04,VALID,1007.89,VALID,0,VALID,104,VALID,0.112112,VALID,23.0511,VALID,50,VALID,0.341016,
2012-12-19, 03:51:04,VALID,1007.89,VALID,0,VALID,104,VALID,0,VALID,23.0511,VALID,50,VALID,0.507031,
2012-12-19, 03:52:04,VALID,1007.87,VALID,0,VALID,104,VALID,0,VALID,23.09,VALID,51,VALID,0.409375,
2012-12-19, 03:53:04,VALID,1007.87,VALID,0,VALID,104,VALID,0,VALID,23.1095,VALID,50,VALID,0.506641,
2012-12-19, 03:54:04,VALID,1007.85,VALID,0,VALID,104,VALID,0,VALID,23.1095,VALID,50,VALID,0.460156,
2012-12-19, 03:55:04,VALID,1007.8,VALID,0,VALID,104,VALID,0,VALID,23.129,VALID,50,VALID,0.333203,
2012-12-19, 03:56:04,VALID,1007.78,VALID,0,VALID,104,VALID,0,VALID,23.129,VALID,50,VALID,0.357031,
2012-12-19, 03:57:04,VALID,1007.73,VALID,0,VALID,104,VALID,0,VALID,23.129,VALID,50,VALID,0.308594,
2012-12-19, 03:58:04,VALID,1007.74,VALID,0,VALID,104,VALID,0,VALID,23.129,VALID,50,VALID,0.423438,